Houma, LA

9:02 PM CDT on June 26, 2017 (GMT -0500)
Houma-terrebonne

Weather History for KHUM - January, 2013

Change the Weather History Date:

Tuesday, January 15, 2013

  Actual Average Record
Temperature  
Mean Temperature 52 °F -  
Max Temperature 59 °F 59 °F 81 °F (1947)
Min Temperature 46 °F 41 °F 24 °F (1964)
Degree Days  
Heating Degree Days 12    
Growing Degree Days 2 (Base 50)    
Moisture  
Dew Point 50 °F    
Average Humidity 100    
Maximum Humidity 100    
Minimum Humidity 99    
Precipitation  
Precipitation 0.00 in - - ()
Sea Level Pressure  
Sea Level Pressure 30.00 in    
Wind  
Wind Speed 8 mph (North)    
Max Wind Speed 12 mph    
Max Gust Speed -    
Visibility 2 miles    
Events Fog , Rain    
Averages and records for this station are not official NWS values.
T = Trace of Precipitation, MM = Missing Value Source: NWS Daily Summary

Daily Weather History Graph

Daily Weather History Graph

Search for Another Location

Airport or City:

Trip Planner

Search our weather history database for the weather conditions in past years. The results will help you decide how hot, cold, wet, or windy it might be!

Date:

Astronomy

Jan. 15, 2013 Rise Set
Actual Time 6:58 AM CST 5:26 PM CST
Civil Twilight 6:32 AM CST 5:51 PM CST
Nautical Twilight 6:03 AM CST 6:21 PM CST
Astronomical Twilight 5:34 AM CST 6:49 PM CST
Moon 9:27 AM CST (1/15) 9:50 PM CST (1/15)
Length of Visible Light 11h 19m
Length of Day
10h 27m
Waxing Crescent, 19% of the Moon is Illuminated
Jan 15
Waxing Crescent
Jan 18
First Quarter
Jan 26
Full
Feb 3
Last Quarter
Feb 10
New

Hourly Weather History & Observations

Time (CST) Temp. Dew Point Humidity Pressure Visibility Wind Dir Wind Speed Gust Speed Precip Events Conditions
12:15 AM 46.8 °F 46.8 °F 100% 30.07 in 7.0 mi North 8.1 mph - N/A   Overcast
12:35 AM 46.8 °F 46.8 °F 100% 30.05 in 7.0 mi NNE 9.2 mph - N/A   Overcast
12:55 AM 47.3 °F 47.3 °F 100% 30.05 in 7.0 mi NNE 8.1 mph - N/A   Overcast
1:15 AM 47.3 °F 46.9 °F 99% 30.05 in 7.0 mi NNE 8.1 mph - N/A   Overcast
1:35 AM 47.3 °F 46.9 °F 99% 30.04 in 5.0 mi North 8.1 mph - N/A   Overcast
1:55 AM 47.3 °F 47.3 °F 100% 30.04 in 5.0 mi North 8.1 mph - N/A   Overcast
2:15 AM 47.3 °F 47.3 °F 100% 30.03 in 5.0 mi North 8.1 mph - N/A Rain Light Rain
2:55 AM 47.3 °F 47.3 °F 100% 30.03 in 3.0 mi North 6.9 mph - N/A   Overcast
3:15 AM 47.3 °F 47.3 °F 100% 30.03 in 4.0 mi North 6.9 mph - N/A   Overcast
3:35 AM 47.5 °F 47.5 °F 100% 30.02 in 4.0 mi NNE 8.1 mph - N/A   Overcast
4:15 AM 48.2 °F 48.2 °F 100% 30.02 in 4.0 mi NNE 8.1 mph - N/A   Overcast
4:35 AM 48.2 °F 48.2 °F 100% 30.01 in 5.0 mi North 9.2 mph - N/A   Light Drizzle
4:55 AM 48.2 °F 48.2 °F 100% 30.01 in 5.0 mi NNE 6.9 mph - N/A   Overcast
5:48 AM 48.2 °F 48.2 °F 100% 30.02 in 3.0 mi NNE 9.2 mph - N/A   Overcast
7:30 AM 48.2 °F 48.2 °F 100% 30.03 in 0.8 mi NNE 9.2 mph - N/A   Overcast
7:50 AM 48.2 °F 48.2 °F 100% 30.04 in 0.5 mi NNE 9.2 mph - N/A Fog Fog
8:50 AM 50.0 °F 50.0 °F 100% 30.05 in 1.2 mi NNE 5.8 mph - N/A Fog Fog
9:02 AM 50.0 °F 50.0 °F 100% 30.04 in 0.5 mi NE 6.9 mph - N/A Fog Fog
9:48 AM 51.8 °F 51.8 °F 100% 30.05 in 0.5 mi NNE 9.2 mph - N/A Fog Fog
10:48 AM 51.8 °F 51.8 °F 100% 30.04 in 0.5 mi North 4.6 mph - N/A Fog Fog
11:50 AM 53.6 °F 53.6 °F 100% 30.00 in 0.5 mi North 5.8 mph - N/A Fog Fog
1:50 PM 57.2 °F 57.2 °F 100% 29.94 in 1.0 mi North 5.8 mph - N/A   Overcast
2:50 PM 57.2 °F 57.2 °F 100% 29.93 in 1.0 mi North 5.8 mph - N/A   Overcast
3:50 PM 59.0 °F 59.0 °F 100% 29.94 in 1.0 mi North 6.9 mph - N/A   Overcast
4:30 PM 55.4 °F 55.4 °F 100% 29.94 in 0.5 mi North 11.5 mph - N/A Fog Fog
4:40 PM 53.6 °F 53.6 °F 100% 29.96 in 0.2 mi North 11.5 mph - N/A Fog Fog
4:50 PM 53.6 °F 53.6 °F 100% 29.96 in 0.2 mi North 11.5 mph - N/A Fog Fog
6:15 PM 52.7 °F 52.7 °F 100% 29.96 in 0.8 mi NNW 9.2 mph - N/A   Overcast
6:35 PM 52.2 °F 52.2 °F 100% 29.96 in 0.8 mi North 8.1 mph - N/A   Overcast
6:50 PM 53.6 °F 53.6 °F 100% 29.97 in 1.0 mi North 11.5 mph - N/A   Overcast
6:55 PM 52.0 °F 52.0 °F 100% 29.97 in 1.0 mi NNW 9.2 mph - N/A   Overcast
7:15 PM 51.4 °F 51.4 °F 100% 29.97 in 0.8 mi North 9.2 mph - N/A   Overcast
7:35 PM 51.4 °F 51.4 °F 100% 29.98 in 0.8 mi NNW 9.2 mph - N/A   Overcast
8:15 PM 51.1 °F 51.1 °F 100% 29.97 in 1.0 mi NNE 6.9 mph - N/A   Overcast
8:35 PM 51.1 °F 51.1 °F 100% 29.97 in 1.2 mi North 5.8 mph - N/A   Overcast
8:55 PM 51.1 °F 51.1 °F 100% 29.97 in 1.2 mi NNW 8.1 mph - N/A   Overcast
9:15 PM 50.9 °F 50.9 °F 100% 29.97 in 0.5 mi North 8.1 mph - N/A Fog Fog
9:35 PM 50.4 °F 50.4 °F 100% 29.97 in 0.5 mi NNW 9.2 mph - N/A Fog Fog
9:55 PM 49.3 °F 49.3 °F 100% 29.98 in 0.8 mi NW 11.5 mph - N/A   Overcast
10:15 PM 48.7 °F 48.7 °F 100% 29.99 in 1.0 mi NNW 6.9 mph - N/A   Overcast
10:55 PM 48.4 °F 48.4 °F 100% 29.97 in 0.5 mi NNW 6.9 mph - N/A Fog Fog
11:15 PM 48.2 °F 48.2 °F 100% 29.98 in 0.5 mi NNW 8.1 mph - N/A Fog Fog
11:35 PM 47.8 °F 47.8 °F 100% 29.97 in 0.8 mi NNW 9.2 mph - N/A   Overcast
11:55 PM 47.5 °F 47.5 °F 100% 29.97 in 1.0 mi NNW 8.1 mph - N/A   Overcast